OVZON-3

Last updated on Sat Oct 05 2024 00:02:41 GMT+0000 (Coordinated Universal Time)

1 58698U 24003A 24277.76514436 .00000057 00000+0 00000+0 0 9993 2 58698 0.0103 202.9248 0001893 39.3699 105.8322 1.00269306 1200
UTC large
Height (km)
Speed (km/s)
/
Latitude / Longitude
Inclination (degrees)
Orbital Period (minutes)
Azimuth
Elevation
Range (km)
Doppler Factor

Next 0 passes for location: London (51.5072 / 0.1276)

Sorry there are no passes over London.